Date String (YYYY-MM-DD hh:mm:ss) UTC,Instrument flags,absolute air pressure of the measurement (hPa),sample flow rate (lpm),inlet stack bypass flow (lpm),air temperature of the measurement (°C),ambient temperature measured by the external sensor (°C),aerosol sample conditioner tube jacket temperature (°C),OPC LED temperature (°C),internal box temperature (°C),relative humidity of the measurement (%),span deviation,mass concentration of particles derived from Lorenz-Mie calculation of OPC scattering (μg/m³),mass concentration of particles derived from Lorenz-Mie calculation of OPC scattering (μg/m³),mass concentration of particles derived from Lorenz-Mie calculation of OPC scattering (μg/m³)
DateTimeUTC,F1_M11,P_M11,Q1_M11,Q2_M11,T1_M11,T2_M11,T3_M11,T4_M11,T5_M11,U1_M11,ZSPAN_M11,X0_M11,X2_M11,X1_M11
2023-11-22 13:00:00,SystemResetWarning,0832.2,5.00,000.00,021.1,020.2,000.0,029.4,022.2,9.7,0000.0,0000.60,0000.34,0000.30
2023-11-22 13:01:00,SystemResetWarning,0832.2,4.99,000.00,021.1,020.2,000.0,029.4,022.3,9.7,0000.0,0000.60,0000.34,0000.30
2023-11-22 13:02:00,SystemResetWarning,0832.2,5.00,000.00,021.1,020.2,000.0,029.4,022.3,9.6,0000.0,0000.60,0000.34,0000.29
2023-11-22 13:03:00,SystemResetWarning,0832.2,5.00,000.00,021.1,020.2,000.0,029.4,022.3,9.6,0000.0,0000.50,0000.33,0000.29
2023-11-22 13:04:00,SystemResetWarning,0832.1,5.00,000.00,021.1,020.2,000.0,029.4,022.3,9.6,0000.0,0000.49,0000.34,0000.28
2023-11-22 13:05:00,SystemResetWarning,0832.2,5.00,000.00,021.1,020.3,000.0,029.4,022.3,9.6,0000.0,0000.49,0000.33,0000.28
2023-11-22 13:06:00,SystemResetWarning,0832.1,5.00,000.00,021.1,020.3,000.0,029.4,022.3,9.6,0000.0,0000.51,0000.34,0000.28
2023-11-22 13:07:00,SystemResetWarning,0832.1,5.00,000.00,021.1,020.3,000.0,029.4,022.3,9.6,0000.0,0000.50,0000.33,0000.27
2023-11-22 13:08:00,SystemResetWarning,0832.2,5.00,000.00,021.1,020.3,000.0,029.4,022.4,9.8,0000.0,0000.49,0000.32,0000.26
2023-11-22 13:09:00,SystemResetWarning,0832.2,5.01,000.00,021.1,020.3,000.0,029.4,022.4,10.2,0000.0,0000.49,0000.32,0000.26
2023-11-22 13:10:00,SystemResetWarning,0832.1,5.00,000.00,021.1,020.3,000.0,029.4,022.4,10.2,0000.0,0000.50,0000.32,0000.26
2023-11-22 13:11:00,SystemResetWarning,0832.2,5.00,000.00,021.1,020.4,000.0,029.4,022.4,10.3,0000.0,0000.50,0000.33,0000.27
2023-11-22 13:12:00,SystemResetWarning,0832.2,5.00,000.00,021.1,020.4,000.0,029.4,022.4,10.3,0000.0,0000.46,0000.32,0000.27
2023-11-22 13:13:00,SystemResetWarning,0832.1,5.01,000.00,021.1,020.4,000.0,029.4,022.4,10.4,0000.0,0000.49,0000.33,0000.27
2023-11-22 13:14:00,SystemResetWarning,0832.1,5.00,000.00,021.2,020.4,000.0,029.4,022.5,10.6,0000.0,0000.55,0000.36,0000.27
2023-11-22 13:15:00,SystemResetWarning,0832.1,4.99,000.00,021.2,020.4,000.0,029.4,022.5,10.5,0000.0,0000.98,0000.36,0000.28
2023-11-22 13:16:00,SystemResetWarning,0832.1,4.99,000.00,021.2,020.4,000.0,029.4,022.5,10.6,0000.0,0001.36,0000.37,0000.29
2023-11-22 13:17:00,SystemResetWarning,0832.1,5.00,000.00,021.2,020.4,000.0,029.4,022.5,10.6,0000.0,0001.90,0000.40,0000.31
2023-11-22 13:18:00,SystemResetWarning,0832.0,5.00,000.00,021.2,020.4,000.0,029.4,022.5,10.5,0000.0,0001.97,0000.43,0000.33
2023-11-22 13:19:00,SystemResetWarning,0832.0,5.01,000.00,021.2,020.4,000.0,029.4,022.4,10.4,0000.0,0002.01,0000.46,0000.35
2023-11-22 13:20:00,SystemResetWarning,0832.0,5.00,000.00,021.2,020.4,000.0,029.5,022.4,10.3,0000.0,0002.08,0000.50,0000.38
2023-11-22 13:21:00,SystemResetWarning,0832.0,5.01,000.00,021.2,020.4,000.0,029.5,022.4,10.3,0000.0,0002.16,0000.54,0000.40
2023-11-22 13:22:00,SystemResetWarning,0832.0,5.00,000.00,021.2,020.4,000.0,029.5,022.4,10.3,0000.0,0002.33,0000.59,0000.43
2023-11-22 13:23:00,SystemResetWarning,0832.0,4.99,000.00,021.2,020.4,000.0,029.5,022.4,10.2,0000.0,0002.42,0000.65,0000.47
2023-11-22 13:24:00,SystemResetWarning,0832.1,4.99,000.00,021.2,020.4,000.0,029.5,022.4,10.2,0000.0,0002.51,0000.70,0000.49
2023-11-22 13:25:00,SystemResetWarning,0832.1,4.99,000.00,021.2,020.4,000.0,029.5,022.5,10.2,0000.0,0002.48,0000.70,0000.51
2023-11-22 13:26:00,SystemResetWarning,0832.0,5.01,000.00,021.2,020.4,000.0,029.5,022.5,10.3,0000.0,0002.22,0000.71,0000.52
2023-11-22 13:27:00,SystemResetWarning,0832.0,5.00,000.00,021.2,020.4,000.0,029.5,022.5,10.3,0000.0,0001.93,0000.71,0000.53
2023-11-22 13:28:00,SystemResetWarning,0832.0,5.01,000.00,021.2,020.4,000.0,029.5,022.5,10.5,0000.0,0001.37,0000.71,0000.53
2023-11-22 13:29:00,SystemResetWarning,0832.1,5.00,000.00,021.2,020.4,000.0,029.5,022.5,10.6,0000.0,0001.34,0000.71,0000.54
2023-11-22 13:30:00,SystemResetWarning,0832.1,5.00,000.00,021.2,020.5,000.0,029.5,022.5,10.6,0000.0,0001.37,0000.73,0000.53
2023-11-22 13:31:00,SystemResetWarning,0832.1,5.00,000.00,021.3,020.5,000.0,029.5,022.5,10.6,0000.0,0001.73,0000.72,0000.52
2023-11-22 13:32:00,SystemResetWarning,0832.1,5.00,000.00,021.3,020.5,000.0,029.5,022.5,10.6,0000.0,0002.03,0000.70,0000.51
2023-11-22 13:33:00,SystemResetWarning,0832.1,5.00,000.00,021.3,020.5,000.0,029.5,022.5,10.5,0000.0,0002.04,0000.68,0000.50
2023-11-22 13:34:00,SystemResetWarning,0832.1,5.00,000.00,021.3,020.4,000.0,029.5,022.5,10.5,0000.0,0002.10,0000.68,0000.49
2023-11-22 13:35:00,SystemResetWarning,0832.1,5.00,000.00,021.3,020.5,000.0,029.5,022.5,10.4,0000.0,0002.15,0000.68,0000.49
2023-11-22 13:36:00,SystemResetWarning,0832.1,5.00,000.00,021.3,020.5,000.0,029.5,022.5,10.5,0000.0,0002.33,0000.70,0000.49
2023-11-22 13:37:00,SystemResetWarning,0832.0,5.00,000.00,021.3,020.5,000.0,029.5,022.5,10.5,0000.0,0002.50,0000.71,0000.50
2023-11-22 13:38:00,SystemResetWarning,0832.0,5.00,000.00,021.3,020.5,000.0,029.5,022.5,10.4,0000.0,0002.54,0000.72,0000.51
2023-11-22 13:39:00,SystemResetWarning,0832.1,5.00,000.00,021.3,020.5,000.0,029.5,022.5,10.3,0000.0,0002.51,0000.73,0000.51
2023-11-22 13:40:00,SystemResetWarning,0832.1,5.00,000.00,021.3,020.5,000.0,029.5,022.6,10.5,0000.0,0002.72,0000.75,0000.51
2023-11-22 13:41:00,SystemResetWarning,0832.1,5.00,000.00,021.3,020.5,000.0,029.5,022.6,10.5,0000.0,0002.84,0000.75,0000.52
2023-11-22 13:42:00,SystemResetWarning,0832.1,5.00,000.00,021.3,020.5,000.0,029.5,022.6,10.6,0000.0,0002.48,0000.78,0000.52
2023-11-22 13:43:00,SystemResetWarning,0832.0,5.01,000.00,021.3,020.5,000.0,029.5,022.6,10.5,0000.0,0002.23,0000.80,0000.52
2023-11-22 13:44:00,SystemResetWarning,0832.1,5.00,000.00,021.3,020.5,000.0,029.5,022.6,10.5,0000.0,0002.15,0000.81,0000.53
2023-11-22 13:45:00,SystemResetWarning,0832.1,4.99,000.00,021.3,020.5,000.0,029.5,022.6,10.5,0000.0,0002.08,0000.78,0000.52
2023-11-22 13:46:00,SystemResetWarning,0832.1,5.00,000.00,021.3,020.6,000.0,029.6,022.6,10.5,0000.0,0001.98,0000.76,0000.52
2023-11-22 13:47:00,SystemResetWarning,0832.1,4.99,000.00,021.3,020.6,000.0,029.6,022.6,10.5,0000.0,0001.83,0000.75,0000.51
2023-11-22 13:48:00,SystemResetWarning,0832.1,4.99,000.00,021.3,020.6,000.0,029.6,022.6,10.5,0000.0,0001.66,0000.75,0000.53
2023-11-22 13:49:00,SystemResetWarning,0832.1,5.00,000.00,021.3,020.6,000.0,029.6,022.6,10.4,0000.0,0001.66,0000.75,0000.53
2023-11-22 13:50:00,SystemResetWarning,0832.2,5.01,000.00,021.3,020.6,000.0,029.6,022.6,10.2,0000.0,0002.01,0000.75,0000.53
2023-11-22 13:51:00,SystemResetWarning,0832.2,5.00,000.00,021.4,020.6,000.0,029.6,022.6,10.1,0000.0,0001.70,0000.73,0000.53
2023-11-22 13:52:00,SystemResetWarning,0832.1,5.01,000.00,021.4,020.6,000.0,029.6,022.6,10.0,0000.0,0001.59,0000.73,0000.53
2023-11-22 13:53:00,SystemResetWarning,0832.1,5.01,000.00,021.4,020.6,000.0,029.6,022.6,10.0,0000.0,0001.64,0000.73,0000.54
2023-11-22 13:54:00,SystemResetWarning,0832.2,5.00,000.00,021.4,020.6,000.0,029.6,022.6,10.1,0000.0,0001.68,0000.75,0000.55
2023-11-22 13:55:00,SystemResetWarning,0832.1,5.00,000.00,021.4,020.6,000.0,029.6,022.6,10.4,0000.0,0001.64,0000.76,0000.56
2023-11-22 13:56:00,SystemResetWarning,0832.1,4.99,000.00,021.4,020.6,000.0,029.6,022.6,10.1,0000.0,0001.63,0000.78,0000.56
2023-11-22 13:57:00,SystemResetWarning,0832.1,5.00,000.00,021.3,020.6,000.0,029.6,022.6,9.9,0000.0,0001.61,0000.77,0000.55
2023-11-22 13:58:00,SystemResetWarning,0832.1,4.99,000.00,021.3,020.5,000.0,029.6,022.5,9.9,0000.0,0001.58,0000.76,0000.54
2023-11-22 13:59:00,SystemResetWarning,0832.2,5.01,000.00,021.3,020.5,000.0,029.6,022.5,9.9,0000.0,0001.80,0000.74,0000.51
